Regional Weather Roundup
Issued by NWS

Home | Current Version | Previous Version | Text Only | Print | Product List | Glossary Off
Versions: 1 2 3 4 5 6 7 8 9 10 11 12 13 14 15 16 17 18 19 20 21 22 23 24 25 26 27 28 29 30 31 32 33 34 35 36 37 38 39 40 41 42 43 44 45 46 47 48 49 50

591
ASUS45 KSLC 221610
RWRUT

UTAH REGIONAL WEATHER ROUNDUP
NATIONAL WEATHER SERVICE SALT LAKE CITY UT
1000 AM MDT MON MAY 22 2017

UTZ001>011-023>025-221700-

NORTHERN UTAH

CITY           SKY/WX    TMP DP  RH WIND       PRES   REMARKS
BRIGHAM CITY   SUNNY     61  46  57 CALM      30.28F
DUGWAY         PTSUNNY   63  41  43 SW1       30.27
HILL AFB       SUNNY     58  44  58 E6        30.29R
LOGAN          SUNNY     57  46  66 NW5       30.28F
OGDEN          SUNNY     59  44  57 SE3       30.27S
SALT LAKE CITY MOSUNNY   64  45  49 CALM      30.27S
TOOELE VALLEY  SUNNY     61  46  59 W3        30.28S
WENDOVER       MOSUNNY   63  41  44 S5        30.28S
HEBER CITY     SUNNY     48  41  76 CALM      30.31F
WEST JORDAN    SUNNY     63  52  68 CALM      30.29S

$$

UTZ011>015-024>027-221700-

CENTRAL/NORTHEAST UTAH

CITY           SKY/WX    TMP DP  RH WIND       PRES   REMARKS
PROVO AIRPORT  SUNNY     56  46  69 SW6       30.30S
MOAB/CANYONLAN SUNNY     61  42  49 SW3       30.22S
DELTA          SUNNY     59  41  51 CALM      30.29S
PRICE          SUNNY     59  35  40 VRB3      30.27S
RICHFIELD      SUNNY     57  39  51 CALM      30.32S
ROOSEVELT      SUNNY     55  37  50 E3        30.29F
VERNAL         SUNNY     57  40  52 VRB3      30.27F

$$

UTZ013>016-019>022-027-221700-

SOUTHERN UTAH

CITY           SKY/WX    TMP DP  RH WIND       PRES   REMARKS
BRYCE CANYON   SUNNY     55  35  47 NE15      30.35S
CEDAR CITY     SUNNY     62  40  44 NE10      30.28S
MILFORD        SUNNY     63  41  44 N9        30.28S
ST GEORGE      SUNNY     73  41  31 VRB6      30.16S
HANKSVILLE     SUNNY     59  37  44 CALM      30.26S
KANAB          SUNNY     68  36  30 NE7       30.28R
BLANDING       SUNNY     60  34  38 CALM      30.31S

$$

REGIONAL REPORTS     COLORADO/ARIZONA

CITY           SKY/WX    TMP DP  RH WIND       PRES   REMARKS
CRAIG, CO      SUNNY     49  40  71 CALM      30.29F
GRAND JUNCTION SUNNY     60  41  49 W7        30.24S
RIFLE, CO      SUNNY     56  39  53 CALM      30.25F
MONTROSE, CO   SUNNY     54  41  61 VRB7      30.27S
CORTEZ, CO     SUNNY     61  38  42 NW15      30.20F
COLORADO CITY    N/A     70  37  30 E5        30.26R
PAGE, AZ       SUNNY     67  39  35 CALM      30.21R
GRAND CANYON   SUNNY     64  33  31 NE9       30.30R
KINGMAN, AZ    SUNNY     81  34  18 N13       30.09S
FLAGSTAFF, AZ  SUNNY     61  32  33 NE9G18    30.29R

$$

REGIONAL REPORTS    NEVADA/IDAHO/WYOMING

CITY           SKY/WX    TMP DP  RH WIND       PRES   REMARKS
LAS VEGAS, NV  MOSUNNY   82  35  18 NE10      30.07R
ELY, NY        MOSUNNY   56  35  45 N3        30.33S
ELKO, NV       SUNNY     59  37  44 CALM      30.30S
POCATELLO, ID  MOSUNNY   58  45  62 W5        30.28F
BURLEY, ID     SUNNY     64  46  52 W6        30.24F
FORT BRIDGER,    N/A     55  34  44 NW9       30.36S
EVANSTON, WY   SUNNY     52  38  58 NW9       30.35R
ROCK SPRINGS,  SUNNY     50  39  66 W9        30.29F
KEMMERER, WY     N/A     52  32  46 W8        30.33F

$$




USA.gov is the U.S. government's official web portal to all federal, state and local government web resources and services.